Location: Hard
(49.9417°N, 12.0858°E)
Time: 22:16:01
(UTC+00:00)

Cosmos 2322 Rocket - Pass Details

Date: 07 June 2020
Orbit: 833 x 850 km, 71.0° (Epoch: 08 July)

Event Time Altitude Azimuth Distance (km) Brightness Sun altitude
Exits shadow 01:29:29 14° 199° (SSW) 2,189 3.7 -11.0°
Maximum altitude 01:34:23 75° 116° (ESE) 867 2.3 -10.6°
Drops below altitude 10° 01:40:00 10° 32° (NNE) 2,454 6.3 -10.1°
Sets 01:42:27 0° 31° (NNE) 3,392 7.6 -9.9°
